TimeCDT,TemperatureF,Dew PointF,Humidity,Sea Level PressureIn,VisibilityMPH,Wind Direction,Wind SpeedMPH,Gust SpeedMPH,PrecipitationIn,Events,Conditions,WindDirDegrees,DateUTC
12:15 AM,67.6,27.3,22,29.76,10.0,SSW,8.1,-,N/A,,Clear,210,2013-05-21 05:15:00
12:55 AM,63.9,28.0,26,29.76,10.0,SW,6.9,-,N/A,,Clear,230,2013-05-21 05:55:00
1:15 AM,63.1,26.6,25,29.76,10.0,WSW,5.8,-,N/A,,Clear,250,2013-05-21 06:15:00
1:55 AM,64.2,22.6,20,29.75,10.0,SW,6.9,-,N/A,,Clear,230,2013-05-21 06:55:00
2:15 AM,63.3,22.6,21,29.76,10.0,West,11.5,-,N/A,,Clear,260,2013-05-21 07:15:00
2:35 AM,67.8,21.2,17,29.75,10.0,West,10.4,-,N/A,,Clear,260,2013-05-21 07:35:00
2:55 AM,69.4,21.9,17,29.74,10.0,West,11.5,-,N/A,,Clear,260,2013-05-21 07:55:00
3:15 AM,70.0,21.9,16,29.74,10.0,West,12.7,-,N/A,,Clear,260,2013-05-21 08:15:00
3:35 AM,69.3,21.2,16,29.75,10.0,West,12.7,-,N/A,,Clear,260,2013-05-21 08:35:00
3:55 AM,68.9,21.7,17,29.76,10.0,West,15.0,-,N/A,,Clear,280,2013-05-21 08:55:00
4:15 AM,73.0,22.8,15,29.77,10.0,WNW,23.0,31.1,N/A,,Clear,300,2013-05-21 09:15:00
4:35 AM,72.7,25.0,17,29.77,7.0,NW,24.2,28.8,N/A,,Clear,310,2013-05-21 09:35:00
4:55 AM,72.3,27.7,19,29.78,10.0,NW,27.6,33.4,N/A,,Clear,310,2013-05-21 09:55:00
5:15 AM,71.6,30.0,21,29.79,10.0,WNW,19.6,32.2,N/A,,Clear,300,2013-05-21 10:15:00
5:35 AM,70.5,30.2,22,29.80,10.0,NW,21.9,31.1,N/A,,Clear,310,2013-05-21 10:35:00
5:55 AM,70.3,30.0,22,29.81,10.0,NW,19.6,26.5,N/A,,Clear,310,2013-05-21 10:55:00
6:15 AM,70.2,30.0,23,29.82,10.0,NW,16.1,21.9,N/A,,Clear,320,2013-05-21 11:15:00
6:35 AM,69.8,30.2,23,29.83,10.0,NW,20.7,-,N/A,,Clear,320,2013-05-21 11:35:00
10:15 AM,74.3,42.8,32,29.95,10.0,NW,11.5,-,N/A,,Clear,310,2013-05-21 15:15:00
10:55 AM,76.6,42.8,30,29.95,10.0,NW,10.4,16.1,N/A,,Clear,320,2013-05-21 15:55:00
11:15 AM,77.7,42.8,29,29.95,10.0,NNW,13.8,17.3,N/A,,Clear,330,2013-05-21 16:15:00
12:35 PM,80.8,40.8,24,29.95,10.0,NW,15.0,19.6,N/A,,Clear,310,2013-05-21 17:35:00
3:15 PM,87.1,34.7,15,29.90,10.0,NW,9.2,24.2,N/A,,Clear,320,2013-05-21 20:15:00
3:55 PM,87.3,34.0,15,29.88,10.0,West,4.6,20.7,N/A,,Clear,270,2013-05-21 20:55:00
10:15 PM,70.9,34.7,26,29.86,10.0,East,5.8,-,N/A,,Clear,100,2013-05-22 03:15:00
10:35 PM,69.4,34.0,27,29.86,10.0,ESE,4.6,-,N/A,,Clear,110,2013-05-22 03:35:00
11:15 PM,66.7,34.3,30,29.88,10.0,ESE,6.9,-,N/A,,Clear,120,2013-05-22 04:15:00